Location: Bidwell Hollow
(37.7387°N, 90.1707°W)
Time: 10:14:00
(UTC+00:00)

Transit 4A - All Passes

Search period start: 15 May 2026 00:00
Search period end: 25 May 2026 00:00
Orbit: 861 x 980 km, 66.8° (Epoch: 14 May)

Date Brightness Start Highest point End Pass type
(mag) Time Alt. Az. Time Alt. Az. Time Alt. Az.
15 May - 00:34:06 10° NW 00:38:54 23° WSW 00:43:38 10° SSW daylight
15 May - 12:08:11 10° SE 12:11:26 15° ESE 12:14:46 10° ENE daylight
15 May - 13:50:51 10° SSW 13:56:56 77° WNW 14:03:15 10° NNE daylight
15 May - 15:40:56 10° WNW 15:44:21 15° NW 15:47:49 10° N daylight
15 May - 21:10:38 10° N 21:14:32 16° NE 21:18:24 10° E daylight
15 May - 22:55:25 10° NNW 23:01:51 83° ENE 23:08:12 10° SSE daylight
16 May - 00:44:05 10° WNW 00:47:21 14° WSW 00:50:34 10° SW daylight
16 May - 12:15:12 10° SSE 12:19:52 24° ESE 12:24:39 10° NE daylight
16 May - 13:59:48 10° SW 14:05:44 53° WNW 14:11:54 10° NNE daylight
16 May - 15:52:13 10° NW 15:53:37 11° NW 15:55:02 10° NNW daylight
16 May - 21:18:45 10° N 21:23:40 22° NE 21:28:32 10° E daylight
16 May - 23:04:12 10° NNW 23:10:34 69° WSW 23:16:49 10° SSE daylight
17 May - 12:22:56 10° S 12:28:23 36° ESE 12:33:59 10° NE daylight
17 May - 14:09:01 10° WSW 14:14:38 37° NW 14:20:26 10° NNE daylight
17 May - 21:27:05 10° N 21:32:42 31° NE 21:38:15 10° ESE daylight
17 May - 23:13:08 10° NW 23:19:12 46° WSW 23:25:10 10° S daylight
18 May - 12:31:04 10° S 12:36:58 54° ESE 12:43:03 10° NE daylight
18 May - 14:18:32 10° WSW 14:23:37 26° NW 14:28:51 10° N daylight
18 May - 21:35:33 10° NNW 21:41:39 44° NE 21:47:39 10° SE daylight
18 May - 23:22:17 10° NW 23:27:46 31° WSW 23:33:10 10° SSW daylight
19 May - 11:00:17 10° E 11:00:23 10° E 11:00:29 10° E daylight
19 May - 12:39:32 10° SSW 12:45:37 81° ESE 12:51:55 10° NNE daylight
19 May - 14:28:25 10° W 14:32:42 19° NW 14:37:05 10° N daylight
19 May - 20:00:04 10° NNE 20:02:51 13° NE 20:05:36 10° ENE daylight
19 May - 21:44:08 10° NNW 21:50:30 63° ENE 21:56:45 10° SE daylight
19 May - 23:31:45 10° WNW 23:36:15 20° WSW 23:40:41 10° SSW daylight
20 May - 11:05:02 10° SE 11:08:46 17° ESE 11:12:34 10° ENE daylight
20 May - 12:48:16 10° SW 12:54:20 70° WNW 13:00:39 10° NNE daylight
20 May - 14:38:48 10° WNW 14:41:53 14° NW 14:45:01 10° N daylight
20 May - 20:07:52 10° N 20:12:03 18° NE 20:16:12 10° E daylight
20 May - 21:52:50 10° NNW 21:59:17 90° E 22:05:36 10° SSE daylight
20 May - 23:42:02 10° WNW 23:44:40 13° W 23:47:17 10° SW daylight
21 May - 11:12:18 10° SSE 11:17:13 26° ESE 11:22:16 10° NE daylight
21 May - 12:57:17 10° SW 13:03:10 48° WNW 13:09:17 10° NNE daylight
21 May - 20:16:03 10° N 20:21:10 24° NE 20:26:13 10° E daylight
21 May - 22:01:39 10° NW 22:07:58 63° WSW 22:14:10 10° SSE daylight
22 May - 11:20:09 10° S 11:25:44 39° ESE 11:31:31 10° NE daylight
22 May - 13:06:34 10° WSW 13:12:06 34° NW 13:17:47 10° NNE daylight
22 May - 20:24:25 10° NNW 20:30:11 34° NE 20:35:51 10° ESE daylight
22 May - 22:10:38 10° NW 22:16:34 42° WSW 22:22:25 10° S daylight
23 May - 11:28:22 10° S 11:34:20 60° ESE 11:40:31 10° NE daylight
23 May - 13:16:09 10° WSW 13:21:06 24° NW 13:26:10 10° N daylight
23 May - 20:32:55 10° NNW 20:39:06 47° ENE 20:45:10 10° SE daylight
23 May - 22:19:50 10° NW 22:25:07 28° WSW 22:30:20 10° SSW daylight
24 May - 09:55:43 10° ESE 09:57:41 12° E 09:59:41 10° E visible
24 May - 11:36:54 10° SSW 11:43:00 88° ESE 11:49:21 10° NNE daylight
24 May - 13:26:08 10° W 13:30:13 18° NW 13:34:21 10° N daylight
24 May - 18:57:12 10° N 19:00:22 14° NE 19:03:32 10° ENE daylight
24 May - 20:41:32 10° NNW 20:47:56 69° ENE 20:54:12 10° SE daylight
24 May - 22:29:27 10° WNW 22:33:35 18° WSW 22:37:41 10° SW daylight
